Location: Melbourne
(37.8170°S, 144.9670°E)
Time: 23:07:47
(UTC+10:00)

ISS - All Passes

Search period start: 30 April 2016 00:00
Search period end: 10 May 2016 00:00
Orbit: 402 x 405 km, 51.6° (Epoch: 29 April)

Date Brightness Start Highest point End Pass type
(mag) Time Alt. Az. Time Alt. Az. Time Alt. Az.
30 Apr - 01:46:51 10° SSW 01:49:12 17° SSE 01:51:32 10° ESE night (unlit)
30 Apr - 03:22:39 10° SW 03:25:59 71° NW 03:29:17 10° NE night (unlit)
30 Apr - 20:00:48 10° NW 20:04:07 83° SW 20:07:28 10° SE visible
30 Apr - 21:38:59 10° WSW 21:41:02 15° SSW 21:43:04 10° SSE night (unlit)
01 May - 00:54:53 10° S 00:56:27 13° SSE 00:58:02 10° SE night (unlit)
01 May - 02:30:13 10° SW 02:33:32 56° SE 02:36:48 10° ENE night (unlit)
01 May - 04:07:59 10° W 04:09:38 13° NW 04:11:16 10° NNW night (unlit)
01 May - 19:08:31 10° NNW 19:11:42 46° NE 19:14:55 10° ESE visible
01 May - 20:45:39 10° W 20:48:19 22° SSW 20:51:00 10° SSE visible
02 May - 01:37:56 10° SSW 01:40:59 31° SSE 01:43:59 10° E night (unlit)
02 May - 03:14:31 10° WSW 03:17:22 26° NW 03:20:11 10° N night (unlit)
02 May - 18:16:43 10° N 18:19:22 22° NE 18:22:02 10° ESE visible
02 May - 19:52:36 10° W 19:55:41 35° SSW 19:58:48 10° SE visible
02 May - 21:32:26 10° SSW 21:32:58 10° SSW 21:33:30 10° S night (unlit)
03 May - 00:45:46 10° SSW 00:48:20 20° SSE 00:50:52 10° ESE night (unlit)
03 May - 02:21:44 10° WSW 02:25:00 54° NW 02:28:15 10° NE night (unlit)
03 May - 17:26:03 10° NE 17:27:06 11° NE 17:28:09 10° ENE daylight
03 May - 18:59:50 10° WNW 19:03:08 66° SW 19:06:29 10° SE visible
03 May - 20:38:23 10° SW 20:40:08 13° SSW 20:41:54 10° SSE visible
03 May - 23:53:43 10° SSW 23:55:34 14° SSE 23:57:26 10° SE night (unlit)
04 May - 01:29:12 10° SW 01:32:33 71° SE 01:35:52 10° ENE night (unlit)
04 May - 03:08:00 10° WNW 03:08:34 10° NW 03:09:08 10° NW night (unlit)
04 May - 18:07:24 10° NW 18:10:40 59° NE 18:13:58 10° ESE visible
04 May - 19:44:54 10° WSW 19:47:23 19° SSW 19:49:52 10° SSE visible
04 May - 23:02:01 10° S 23:02:45 11° SSE 23:03:30 10° SSE night (unlit)
05 May - 00:36:50 10° SW 00:40:00 37° SE 00:43:07 10° ENE night (unlit)
05 May - 02:13:42 10° W 02:16:18 21° NW 02:18:51 10° N night (unlit)
05 May - 17:15:23 10° NNW 17:18:17 28° NE 17:21:11 10° ESE daylight
05 May - 18:51:44 10° W 18:54:42 29° SSW 18:57:41 10° SSE visible
05 May - 23:44:36 10° SSW 23:47:20 23° SSE 23:50:03 10° E night (unlit)
06 May - 01:20:44 10° WSW 01:23:56 42° NW 01:27:05 10° NNE night (unlit)
06 May - 16:24:08 10° NNE 16:25:57 14° NE 16:27:48 10° E daylight
06 May - 17:58:50 10° WNW 18:02:05 52° SW 18:05:22 10° SE visible
06 May - 19:37:42 10° SW 19:39:10 12° SSW 19:40:38 10° S visible
06 May - 22:52:29 10° SSW 22:54:36 15° SSE 22:56:42 10° ESE night (unlit)
07 May - 00:28:07 10° SW 00:31:29 89° SE 00:34:48 10° NE night (unlit)
07 May - 17:06:15 10° NW 17:09:33 76° NE 17:12:54 10° SE daylight
07 May - 18:44:06 10° WSW 18:46:22 17° SSW 18:48:39 10° SSE visible
07 May - 22:00:34 10° S 22:01:46 11° SSE 22:02:58 10° SE night (unlit)
07 May - 23:35:41 10° SW 23:38:55 45° SE 23:42:07 10° ENE night (unlit)
08 May - 01:12:54 10° W 01:15:07 17° NW 01:17:19 10° N night (unlit)
08 May - 16:14:03 10° NNW 16:17:06 35° NE 16:20:11 10° ESE daylight
08 May - 17:50:47 10° W 17:53:37 25° SSW 17:56:28 10° SSE visible
08 May - 22:43:22 10° SSW 22:46:16 26° SSE 22:49:08 10° E night (unlit)
09 May - 00:19:42 10° WSW 00:22:46 33° NW 00:25:47 10° NNE night (unlit)
09 May - 15:22:26 10° N 15:24:44 18° NE 15:27:02 10° E daylight
09 May - 16:57:46 10° WNW 17:00:57 42° SW 17:04:10 10° SE daylight
09 May - 18:37:02 10° SW 18:38:07 11° SSW 18:39:13 10° S visible
09 May - 21:51:10 10° SSW 21:53:31 17° SSE 21:55:51 10° ESE night (unlit)
09 May - 23:26:58 10° SW 23:30:18 72° NW 23:33:36 10° NE night (unlit)
